• In Czech Republic
  • List of Countries
  • For 7 days
  • Water Temperature
  • Satellite Maps
  • Weather Map
  • Weather Widgets
  • user-avatar
    Login

    Hourly Weather Oshutyaly

    Today, 26 September, Wednesday

    Time Temperature Precipitation Wind Pressure Humidity
    00:00 +8°C° 0 mm 4 mps 748 mmHg 87%
    01:00 +7°C° 0 mm 4 mps 749 mmHg 89%
    02:00 +7°C° 0 mm 4 mps 749 mmHg 90%
    03:00 +6°C° 0 mm 4 mps 749 mmHg 91%
    04:00 +6°C° 0 mm 4 mps 750 mmHg 92%
    05:00 +6°C° 0 mm 4 mps 750 mmHg 92%
    06:00 +6°C° 0 mm 4 mps 751 mmHg 92%
    07:00 +7°C° 0 mm 5 mps 752 mmHg 89%
    08:00 +7°C° 0 mm 5 mps 752 mmHg 86%
    09:00 +8°C° 0 mm 5 mps 753 mmHg 83%
    10:00 +8°C° 0 mm 5 mps 753 mmHg 81%
    11:00 +9°C° 0 mm 5 mps 754 mmHg 79%
    12:00 +9°C° 0 mm 5 mps 754 mmHg 78%
    13:00 +10°C° 0 mm 4 mps 755 mmHg 77%
    14:00 +10°C° 0 mm 4 mps 755 mmHg 76%
    15:00 +10°C° 0 mm 4 mps 756 mmHg 75%
    16:00 +9°C° 0 mm 3 mps 756 mmHg 77%
    17:00 +9°C° 0 mm 3 mps 756 mmHg 78%
    18:00 +8°C° 0 mm 3 mps 756 mmHg 80%
    19:00 +7°C° 0 mm 3 mps 756 mmHg 81%
    20:00 +7°C° 0 mm 3 mps 756 mmHg 82%
    21:00 +5°C° 0 mm 3 mps 756 mmHg 83%
    22:00 +4°C° 0 mm 3 mps 756 mmHg 84%
    23:00 +4°C° 0 mm 3 mps 756 mmHg 85%

    Tomorrow, 27 September, Thursday

    Time Temperature Precipitation Wind Pressure Humidity
    00:00 +4°C° 0 mm 2 mps 756 mmHg 85%
    01:00 +3°C° 0 mm 3 mps 755 mmHg 85%
    02:00 +3°C° 0 mm 3 mps 755 mmHg 85%
    03:00 +3°C° 0 mm 4 mps 754 mmHg 85%
    04:00 +3°C° 0 mm 4 mps 753 mmHg 84%
    05:00 +2°C° 0 mm 5 mps 752 mmHg 84%
    06:00 +2°C° 0 mm 5 mps 752 mmHg 84%
    07:00 +3°C° 0 mm 6 mps 751 mmHg 77%
    08:00 +4°C° 0 mm 7 mps 750 mmHg 71%
    09:00 +5°C° 0 mm 8 mps 749 mmHg 64%
    10:00 +5°C° 0.2 mm 8 mps 749 mmHg 66%
    11:00 +5°C° 0.2 mm 8 mps 748 mmHg 67%
    12:00 +5°C° 0.2 mm 8 mps 747 mmHg 68%
    13:00 +5°C° 0.7 mm 8 mps 746 mmHg 71%
    14:00 +5°C° 0.7 mm 8 mps 745 mmHg 75%
    15:00 +4°C° 0.7 mm 8 mps 744 mmHg 79%
    16:00 +4°C° 1 mm 7 mps 744 mmHg 82%
    17:00 +4°C° 1 mm 7 mps 743 mmHg 84%
    18:00 +4°C° 1 mm 6 mps 743 mmHg 87%
    19:00 +4°C° 0.3 mm 6 mps 743 mmHg 87%
    20:00 +5°C° 0.3 mm 5 mps 743 mmHg 88%
    21:00 +6°C° 0.3 mm 5 mps 743 mmHg 88%
    22:00 +5°C° 0 mm 5 mps 743 mmHg 88%
    23:00 +5°C° 0 mm 5 mps 744 mmHg 88%

    Day after tomorrow, 28 September, Friday

    Time Temperature Precipitation Wind Pressure Humidity
    00:00 +3°C° 0 mm 5 mps 744 mmHg 87%
    01:00 +3°C° 0 mm 5 mps 744 mmHg 88%
    02:00 +3°C° 0 mm 5 mps 745 mmHg 88%
    03:00 +3°C° 0 mm 5 mps 745 mmHg 89%
    04:00 +2°C° 0 mm 5 mps 745 mmHg 89%
    05:00 +2°C° 0 mm 5 mps 746 mmHg 90%
    06:00 +2°C° 0 mm 5 mps 746 mmHg 91%
    07:00 +3°C° 0 mm 5 mps 746 mmHg 85%
    08:00 +4°C° 0 mm 6 mps 746 mmHg 80%
    09:00 +7°C° 0 mm 6 mps 746 mmHg 75%
    10:00 +7°C° 0.2 mm 6 mps 746 mmHg 74%
    11:00 +7°C° 0.2 mm 6 mps 745 mmHg 73%
    12:00 +8°C° 0.2 mm 6 mps 745 mmHg 72%
    13:00 +8°C° 1.5 mm 6 mps 744 mmHg 78%
    14:00 +7°C° 1.5 mm 6 mps 743 mmHg 83%
    15:00 +7°C° 1.5 mm 6 mps 743 mmHg 89%
    16:00 +8°C° 1.5 mm 7 mps 742 mmHg 88%
    17:00 +9°C° 1.5 mm 8 mps 741 mmHg 86%
    18:00 +10°C° 1.5 mm 8 mps 740 mmHg 85%
    19:00 +10°C° 0.9 mm 8 mps 740 mmHg 85%
    20:00 +10°C° 0.9 mm 8 mps 740 mmHg 85%
    21:00 +11°C° 0.9 mm 8 mps 741 mmHg 85%
    22:00 +9°C° 0.1 mm 7 mps 742 mmHg 84%
    23:00 +7°C° 0.1 mm 6 mps 743 mmHg 83%

    29 September, Saturday

    Time Temperature Precipitation Wind Pressure Humidity
    00:00 +5°C° 0.1 mm 6 mps 744 mmHg 82%
    01:00 +5°C° 0 mm 5 mps 745 mmHg 84%
    02:00 +3°C° 0 mm 5 mps 746 mmHg 86%
    03:00 +2°C° 0 mm 5 mps 747 mmHg 89%
    04:00 +2°C° 0 mm 5 mps 748 mmHg 88%
    05:00 +2°C° 0 mm 5 mps 749 mmHg 87%
    06:00 +1°C° 0 mm 5 mps 750 mmHg 86%
    07:00 +2°C° 0 mm 5 mps 750 mmHg 81%
    08:00 +3°C° 0 mm 6 mps 751 mmHg 75%
    09:00 +3°C° 0 mm 6 mps 752 mmHg 70%
    10:00 +4°C° 0 mm 6 mps 752 mmHg 65%
    11:00 +5°C° 0 mm 6 mps 753 mmHg 61%
    12:00 +6°C° 0 mm 7 mps 753 mmHg 56%
    13:00 +7°C° 0 mm 6 mps 754 mmHg 55%
    14:00 +8°C° 0 mm 6 mps 754 mmHg 54%
    15:00 +8°C° 0 mm 6 mps 754 mmHg 53%
    16:00 +7°C° 0 mm 5 mps 755 mmHg 58%
    17:00 +6°C° 0 mm 4 mps 755 mmHg 62%
    18:00 +5°C° 0 mm 3 mps 756 mmHg 66%
    19:00 +5°C° 0 mm 3 mps 756 mmHg 68%
    20:00 +4°C° 0 mm 3 mps 756 mmHg 69%
    21:00 +4°C° 0 mm 3 mps 757 mmHg 71%
    22:00 +4°C° 0 mm 3 mps 757 mmHg 72%
    23:00 +3°C° 0 mm 3 mps 757 mmHg 74%

    30 September, Sunday

    Time Temperature Precipitation Wind Pressure Humidity
    00:00 +4°C° 0 mm 2 mps 758 mmHg 75%
    01:00 +3°C° 0 mm 2 mps 758 mmHg 77%
    02:00 +3°C° 0 mm 2 mps 758 mmHg 79%
    03:00 +3°C° 0 mm 2 mps 758 mmHg 82%
    04:00 +2°C° 0 mm 2 mps 758 mmHg 83%
    05:00 +2°C° 0 mm 2 mps 759 mmHg 84%
    06:00 +1°C° 0 mm 2 mps 759 mmHg 86%
    07:00 +3°C° 0 mm 2 mps 759 mmHg 79%
    08:00 +3°C° 0 mm 3 mps 759 mmHg 72%
    09:00 +5°C° 0 mm 3 mps 760 mmHg 66%
    10:00 +7°C° 0 mm 3 mps 760 mmHg 61%
    11:00 +7°C° 0 mm 3 mps 760 mmHg 56%
    12:00 +8°C° 0 mm 3 mps 760 mmHg 52%
    13:00 +8°C° 0 mm 3 mps 760 mmHg 52%
    14:00 +8°C° 0 mm 3 mps 760 mmHg 52%
    15:00 +8°C° 0 mm 3 mps 759 mmHg 52%
    16:00 +7°C° 0 mm 3 mps 760 mmHg 57%
    17:00 +6°C° 0 mm 2 mps 760 mmHg 63%
    18:00 +4°C° 0 mm 2 mps 760 mmHg 68%
    19:00 +4°C° 0 mm 2 mps 760 mmHg 70%
    20:00 +3°C° 0 mm 2 mps 760 mmHg 73%
    21:00 +2°C° 0 mm 2 mps 760 mmHg 75%
    22:00 +2°C° 0 mm 2 mps 760 mmHg 76%
    23:00 +2°C° 0 mm 2 mps 760 mmHg 77%

    1 October, Monday

    Time Temperature Precipitation Wind Pressure Humidity
    00:00 +1°C° 0 mm 2 mps 760 mmHg 78%
    01:00 +1°C° 0 mm 2 mps 760 mmHg 78%
    02:00 +1°C° 0 mm 2 mps 760 mmHg 77%
    03:00 -1°C° 0 mm 2 mps 760 mmHg 77%
    04:00 -1°C° 0 mm 2 mps 760 mmHg 75%
    05:00 -1°C° 0 mm 2 mps 759 mmHg 74%
    06:00 -1°C° 0 mm 3 mps 759 mmHg 72%
    07:00 +1°C° 0 mm 3 mps 759 mmHg 69%
    08:00 +3°C° 0 mm 3 mps 759 mmHg 66%
    09:00 +5°C° 0 mm 4 mps 759 mmHg 63%
    10:00 +7°C° 0 mm 4 mps 759 mmHg 59%
    11:00 +8°C° 0 mm 5 mps 758 mmHg 55%
    12:00 +10°C° 0 mm 5 mps 758 mmHg 52%
    13:00 +10°C° 0 mm 5 mps 758 mmHg 52%
    14:00 +10°C° 0 mm 5 mps 758 mmHg 53%
    15:00 +10°C° 0 mm 5 mps 757 mmHg 53%
    16:00 +10°C° 0 mm 4 mps 757 mmHg 59%
    17:00 +7°C° 0 mm 4 mps 757 mmHg 66%
    18:00 +7°C° 0 mm 3 mps 757 mmHg 72%
    19:00 +7°C° 0 mm 3 mps 757 mmHg 74%
    20:00 +5°C° 0 mm 3 mps 757 mmHg 75%
    21:00 +5°C° 0 mm 3 mps 757 mmHg 77%
    22:00 +5°C° 0 mm 3 mps 757 mmHg 77%
    23:00 +5°C° 0 mm 3 mps 758 mmHg 77%
    Show more